QPF
0.01 0.01 0.01 0.01 0.01 0.01 0.01 0.01 0.01 0.01 0.01 0.01 0.00 0.00 0.00 0.00 0.00 0.00 0.00 0.00 0.00 0.00 0.00 0.00 0.01 0.01 0.01 0.01 0.01 0.01 0.02 0.02 0.02 0.01 0.00 0.00 0.01 0.01 0.02 0.03 0.03 0.03 0.02
0.01 0.01 0.01 0.01 0.01 0.01 0.01 0.00 0.00 0.00 0.00 0.00 0.00 0.00 0.00 0.00 0.00 0.00 0.00 0.00 0.00 0.00 0.00 0.00 0.00 0.00 0.01 0.01 0.01 0.02 0.02 0.02 0.02 0.01 0.01 0.01 0.01 0.01 0.02 0.03 0.03 0.03 0.02
0.01 0.01 0.01 0.01 0.01 0.01 0.01 0.00 0.00 0.01 0.00 0.00 0.00 0.00 0.00 0.00 0.00 0.00 0.00 0.00 0.01 0.01 0.00 0.00 0.00 0.00 0.01 0.01 0.02 0.02 0.02 0.03 0.03 0.03 0.02 0.01 0.01 0.01 0.01 0.02 0.02 0.02 0.02
0.00 0.00 0.00 0.00 0.01 0.01 0.00 0.00 0.01 0.01 0.01 0.01 0.01 0.00 0.00 0.00 0.00 0.00 0.01 0.01 0.01 0.01 0.00 0.00 0.00 0.00 0.01 0.01 0.01 0.02 0.02 0.02 0.03 0.03 0.03 0.02 0.02 0.02 0.01 0.02 0.02 0.02 0.02
0.00 0.01 0.00 0.00 0.00 0.00 0.00 0.00 0.00 0.01 0.01 0.01 0.01 0.00 0.00 0.00 0.00 0.00 0.01 0.01 0.01 0.01 0.00 0.00 0.00 0.01 0.01 0.01 0.01 0.01 0.02 0.02 0.03 0.03 0.03 0.02 0.02 0.02 0.01 0.01 0.01 0.01 0.02
0.00 0.00 0.01 0.01 0.01 0.01 0.01 0.01 0.00 0.00 0.01 0.01 0.01 0.01 0.00 0.00 0.01 0.01 0.01 0.01 0.01 0.01 0.01 0.01 0.01 0.01 0.01 0.01 0.01 0.02 0.02 0.02 0.03 0.03 0.02 0.01 0.01 0.01 0.01 0.01 0.01 0.01 0.02
0.00 0.00 0.01 0.01 0.01 0.01 0.01 0.01 0.00 0.00 0.01 0.01 0.01 0.01 0.01 0.01 0.01 0.01 0.01 0.01 0.01 0.01 0.01 0.01 0.01 0.01 0.01 0.01 0.02 0.03 0.03 0.03 0.03 0.03 0.02 0.01 0.01 0.01 0.01 0.02 0.02 0.01 0.02
0.01 0.01 0.01 0.01 0.01 0.01 0.01 0.01 0.01 0.00 0.00 0.01 0.01 0.01 0.01 0.01 0.01 0.01 0.02 0.02 0.02 0.01 0.01 0.01 0.01 0.01 0.01 0.02 0.02 0.02 0.02 0.02 0.02 0.02 0.02 0.01 0.01 0.01 0.01 0.02 0.02 0.03 0.03
0.00 0.01 0.01 0.01 0.01 0.01 0.01 0.01 0.01 0.00 0.00 0.00 0.00 0.01 0.00 0.00 0.01 0.01 0.01 0.02 0.02 0.02 0.02 0.02 0.02 0.02 0.02 0.02 0.02 0.02 0.02 0.02 0.03 0.02 0.02 0.02 0.02 0.02 0.02 0.03 0.03 0.04 0.04
0.00 0.01 0.01 0.01 0.01 0.01 0.01 0.01 0.01 0.00 0.00 0.00 0.00 0.00 0.00 0.00 0.01 0.01 0.02 0.01 0.01 0.01 0.02 0.02 0.02 0.02 0.02 0.02 0.02 0.02 0.02 0.02 0.03 0.04 0.03 0.03 0.02 0.02 0.02 0.02 0.02 0.03 0.03
0.00 0.01 0.01 0.01 0.01 0.01 0.01 0.01 0.01 0.00 0.00 0.00 0.00 0.00 0.00 0.00 0.01 0.01 0.02 0.01 0.01 0.01 0.01 0.01 0.01 0.02 0.02 0.03 0.03 0.03 0.02 0.02 0.02 0.03 0.02 0.03 0.02 0.02 0.02 0.01 0.01 0.01 0.02
0.00 0.01 0.01 0.01 0.01 0.01 0.01 0.01 0.01 0.01 0.01 0.01 0.01 0.01 0.01 0.01 0.01 0.01 0.01 0.01 0.01 0.01 0.02 0.01 0.01 0.02 0.02 0.02 0.02 0.02 0.02 0.03 0.03 0.03 0.03 0.02 0.02 0.02 0.02 0.02 0.02 0.02 0.02
0.00 0.01 0.01 0.01 0.01 0.01 0.01 0.01 0.01 0.01 0.01 0.01 0.01 0.01 0.01 0.00 0.01 0.01 0.01 0.01 0.01 0.02 0.01 0.02 0.02 0.02 0.02 0.02 0.02 0.02 0.02 0.03 0.03 0.03 0.03 0.02 0.01 0.01 0.01 0.02 0.02 0.02 0.02
0.01 0.01 0.01 0.01 0.01 0.01 0.01 0.01 0.01 0.01 0.01 0.02 0.02 0.01 0.01 0.01 0.01 0.01 0.01 0.01 0.01 0.02 0.02 0.02 0.02 0.02 0.01 0.02 0.02 0.02 0.02 0.03 0.03 0.03 0.02 0.02 0.02 0.02 0.02 0.02 0.02 0.02 0.02
0.00 0.00 0.01 0.01 0.00 0.00 0.00 0.01 0.01 0.01 0.01 0.01 0.02 0.02 0.02 0.01 0.01 0.02 0.02 0.01 0.01 0.01 0.02 0.03 0.03 0.03 0.02 0.02 0.02 0.02 0.02 0.03 0.04 0.03 0.02 0.02 0.02 0.02 0.02 0.01 0.01 0.01 0.02
0.00 0.00 0.00 0.00 0.00 0.00 0.01 0.01 0.01 0.01 0.01 0.01 0.01 0.02 0.02 0.02 0.02 0.02 0.02 0.02 0.02 0.02 0.03 0.03 0.03 0.03 0.02 0.02 0.02 0.02 0.02 0.03 0.03 0.03 0.02 0.02 0.02 0.02 0.02 0.02 0.01 0.01 0.01
0.01 0.00 0.00 0.00 0.00 0.01 0.01 0.01 0.01 0.01 0.01 0.01 0.01 0.01 0.01 0.01 0.01 0.02 0.02 0.02 0.02 0.02 0.03 0.02 0.02 0.02 0.02 0.01 0.02 0.02 0.02 0.02 0.03 0.03 0.02 0.02 0.02 0.02 0.02 0.02 0.02 0.02 0.02
0.00 0.00 0.00 0.01 0.01 0.01 0.01 0.01 0.02 0.01 0.01 0.01 0.01 0.01 0.01 0.01 0.01 0.02 0.02 0.03 0.03 0.03 0.02 0.02 0.02 0.02 0.02 0.02 0.02 0.02 0.02 0.03 0.03 0.03 0.03 0.02 0.02 0.02 0.02 0.02 0.02 0.02 0.02
0.01 0.01 0.01 0.01 0.01 0.01 0.01 0.01 0.02 0.02 0.02 0.02 0.01 0.01 0.01 0.01 0.02 0.02 0.02 0.03 0.03 0.02 0.02 0.02 0.02 0.02 0.02 0.02 0.02 0.02 0.03 0.03 0.03 0.03 0.03 0.03 0.02 0.02 0.02 0.02 0.02 0.02 0.02
0.01 0.01 0.01 0.01 0.01 0.01 0.01 0.02 0.02 0.02 0.02 0.02 0.02 0.02 0.02 0.02 0.02 0.02 0.02 0.02 0.02 0.02 0.02 0.02 0.02 0.02 0.02 0.02 0.02 0.02 0.03 0.03 0.03 0.03 0.03 0.03 0.03 0.02 0.02 0.02 0.01 0.02 0.02
0.01 0.01 0.01 0.01 0.01 0.01 0.02 0.02 0.02 0.02 0.03 0.02 0.02 0.03 0.03 0.03 0.03 0.02 0.02 0.02 0.02 0.02 0.02 0.02 0.02 0.02 0.02 0.02 0.02 0.02 0.02 0.03 0.03 0.03 0.03 0.03 0.03 0.02 0.02 0.02 0.02 0.02 0.02
0.01 0.01 0.01 0.01 0.01 0.02 0.02 0.02 0.02 0.02 0.02 0.03 0.02 0.03 0.03 0.03 0.03 0.03 0.03 0.02 0.02 0.02 0.02 0.03 0.03 0.02 0.02 0.02 0.02 0.02 0.02 0.03 0.03 0.03 0.03 0.03 0.03 0.02 0.02 0.02 0.02 0.02 0.02
0.01 0.01 0.01 0.01 0.01 0.02 0.02 0.02 0.02 0.02 0.02 0.03 0.03 0.03 0.03 0.03 0.03 0.03 0.03 0.02 0.02 0.02 0.02 0.03 0.02 0.02 0.02 0.02 0.02 0.02 0.02 0.02 0.03 0.04 0.03 0.03 0.03 0.03 0.03 0.02 0.02 0.02 0.02
0.01 0.01 0.01 0.01 0.01 0.01 0.01 0.01 0.02 0.02 0.02 0.03 0.03 0.03 0.04 0.03 0.03 0.03 0.03 0.03 0.02 0.02 0.02 0.03 0.03 0.02 0.02 0.03 0.03 0.03 0.03 0.02 0.03 0.04 0.04 0.03 0.03 0.03 0.03 0.03 0.02 0.02 0.02
0.01 0.01 0.01 0.01 0.01 0.01 0.01 0.01 0.02 0.02 0.02 0.03 0.03 0.03 0.03 0.03 0.03 0.03 0.03 0.03 0.03 0.03 0.03 0.03 0.03 0.03 0.03 0.03 0.03 0.03 0.04 0.04 0.03 0.04 0.04 0.04 0.04 0.03 0.03 0.03 0.03 0.02 0.02
0.01 0.01 0.01 0.01 0.01 0.01 0.01 0.01 0.01 0.02 0.02 0.02 0.02 0.03 0.03 0.03 0.03 0.03 0.03 0.03 0.03 0.03 0.03 0.03 0.03 0.03 0.03 0.03 0.03 0.03 0.04 0.04 0.04 0.04 0.04 0.04 0.04 0.04 0.03 0.03 0.02 0.02 0.02
MSLP
998.62 999.65 1000.59 1001.44 1002.19 1002.88 1003.52 1004.16 1004.80 1005.46 1006.15 1006.84 1007.53 1008.21 1008.87 1009.49 1010.08 1010.64 1011.17 1011.68 1012.16 1012.60 1012.99 1013.35 1013.66 1013.97 1014.28 1014.64 1015.09 1015.65 1016.35 1017.17 1018.09 1019.05 1020.01 1020.90 1021.66 1022.24 1022.63 1022.83 1022.86 1022.75 1022.53
997.71 998.76 999.73 1000.60 1001.38 1002.09 1002.76 1003.40 1004.04 1004.70 1005.37 1006.05 1006.74 1007.42 1008.08 1008.73 1009.36 1009.98 1010.58 1011.17 1011.73 1012.27 1012.77 1013.22 1013.64 1014.04 1014.45 1014.90 1015.41 1016.03 1016.75 1017.57 1018.47 1019.40 1020.30 1021.12 1021.81 1022.34 1022.67 1022.82 1022.80 1022.65 1022.39
996.90 997.96 998.94 999.84 1000.65 1001.40 1002.09 1002.77 1003.43 1004.10 1004.77 1005.45 1006.13 1006.82 1007.49 1008.17 1008.85 1009.53 1010.21 1010.88 1011.55 1012.20 1012.82 1013.39 1013.93 1014.45 1014.95 1015.48 1016.05 1016.69 1017.41 1018.19 1019.02 1019.87 1020.67 1021.39 1021.97 1022.40 1022.65 1022.73 1022.66 1022.46 1022.16
996.28 997.32 998.29 999.20 1000.04 1000.83 1001.58 1002.30 1003.01 1003.70 1004.40 1005.10 1005.79 1006.48 1007.18 1007.89 1008.61 1009.34 1010.10 1010.87 1011.65 1012.41 1013.14 1013.84 1014.50 1015.12 1015.72 1016.31 1016.92 1017.56 1018.24 1018.96 1019.70 1020.42 1021.09 1021.68 1022.14 1022.46 1022.62 1022.63 1022.50 1022.26 1021.93
995.91 996.90 997.85 998.76 999.63 1000.46 1001.26 1002.04 1002.81 1003.56 1004.30 1005.03 1005.75 1006.46 1007.18 1007.92 1008.68 1009.47 1010.29 1011.14 1012.00 1012.86 1013.70 1014.50 1015.25 1015.96 1016.63 1017.26 1017.89 1018.51 1019.14 1019.77 1020.40 1020.99 1021.53 1021.98 1022.33 1022.54 1022.61 1022.56 1022.39 1022.12 1021.77
995.83 996.74 997.65 998.54 999.42 1000.30 1001.17 1002.02 1002.86 1003.68 1004.48 1005.25 1006.01 1006.75 1007.50 1008.26 1009.05 1009.88 1010.75 1011.65 1012.57 1013.49 1014.40 1015.27 1016.08 1016.84 1017.55 1018.20 1018.81 1019.40 1019.97 1020.52 1021.04 1021.52 1021.93 1022.27 1022.51 1022.64 1022.65 1022.56 1022.36 1022.09 1021.74
996.03 996.85 997.70 998.57 999.47 1000.38 1001.31 1002.24 1003.16 1004.05 1004.92 1005.74 1006.54 1007.32 1008.09 1008.87 1009.68 1010.53 1011.41 1012.33 1013.28 1014.23 1015.16 1016.05 1016.89 1017.66 1018.36 1019.01 1019.60 1020.14 1020.65 1021.12 1021.55 1021.93 1022.26 1022.51 1022.68 1022.76 1022.74 1022.64 1022.45 1022.19 1021.85
996.50 997.23 998.02 998.86 999.76 1000.71 1001.70 1002.69 1003.68 1004.65 1005.57 1006.45 1007.28 1008.09 1008.88 1009.67 1010.49 1011.33 1012.21 1013.12 1014.05 1014.98 1015.89 1016.77 1017.58 1018.33 1019.01 1019.62 1020.18 1020.68 1021.13 1021.54 1021.91 1022.23 1022.50 1022.70 1022.83 1022.89 1022.88 1022.79 1022.63 1022.39 1022.09
997.21 997.85 998.58 999.39 1000.30 1001.27 1002.30 1003.35 1004.39 1005.41 1006.38 1007.30 1008.16 1008.99 1009.79 1010.58 1011.38 1012.21 1013.06 1013.93 1014.82 1015.70 1016.56 1017.38 1018.14 1018.84 1019.48 1020.05 1020.57 1021.03 1021.45 1021.82 1022.15 1022.43 1022.67 1022.85 1022.97 1023.03 1023.04 1022.98 1022.85 1022.67 1022.41
998.09 998.67 999.35 1000.14 1001.04 1002.03 1003.09 1004.16 1005.24 1006.28 1007.28 1008.22 1009.10 1009.93 1010.72 1011.51 1012.29 1013.09 1013.89 1014.72 1015.54 1016.36 1017.15 1017.90 1018.60 1019.24 1019.83 1020.36 1020.84 1021.27 1021.66 1022.01 1022.32 1022.59 1022.81 1022.98 1023.10 1023.17 1023.19 1023.16 1023.08 1022.94 1022.72
999.12 999.65 1000.30 1001.07 1001.97 1002.96 1004.01 1005.10 1006.17 1007.22 1008.22 1009.15 1010.03 1010.85 1011.63 1012.40 1013.16 1013.92 1014.68 1015.45 1016.21 1016.96 1017.67 1018.35 1018.98 1019.57 1020.11 1020.61 1021.06 1021.48 1021.86 1022.20 1022.49 1022.75 1022.96 1023.12 1023.23 1023.30 1023.33 1023.32 1023.26 1023.14 1022.96
1000.26 1000.75 1001.38 1002.14 1003.03 1004.00 1005.04 1006.10 1007.15 1008.18 1009.15 1010.06 1010.91 1011.71 1012.48 1013.22 1013.96 1014.69 1015.41 1016.13 1016.83 1017.51 1018.16 1018.78 1019.36 1019.90 1020.41 1020.88 1021.32 1021.73 1022.10 1022.43 1022.72 1022.96 1023.15 1023.29 1023.38 1023.42 1023.43 1023.40 1023.34 1023.23 1023.06
1001.46 1001.95 1002.56 1003.31 1004.17 1005.12 1006.11 1007.13 1008.14 1009.11 1010.04 1010.91 1011.73 1012.51 1013.26 1013.98 1014.69 1015.40 1016.09 1016.76 1017.42 1018.05 1018.65 1019.21 1019.75 1020.26 1020.75 1021.21 1021.65 1022.05 1022.42 1022.75 1023.03 1023.24 1023.40 1023.49 1023.54 1023.53 1023.49 1023.42 1023.32 1023.18 1023.00
1002.70 1003.18 1003.79 1004.52 1005.35 1006.25 1007.20 1008.16 1009.10 1010.01 1010.89 1011.71 1012.50 1013.25 1013.98 1014.69 1015.38 1016.06 1016.73 1017.37 1017.99 1018.58 1019.14 1019.68 1020.18 1020.67 1021.15 1021.60 1022.04 1022.45 1022.82 1023.14 1023.39 1023.58 1023.69 1023.73 1023.70 1023.63 1023.52 1023.37 1023.21 1023.02 1022.80
1003.95 1004.43 1005.03 1005.73 1006.52 1007.37 1008.26 1009.15 1010.03 1010.88 1011.69 1012.48 1013.23 1013.96 1014.67 1015.37 1016.05 1016.72 1017.36 1017.98 1018.57 1019.12 1019.65 1020.16 1020.64 1021.11 1021.58 1022.03 1022.47 1022.88 1023.24 1023.55 1023.79 1023.94 1024.00 1023.97 1023.88 1023.72 1023.52 1023.30 1023.06 1022.80 1022.52
1005.18 1005.65 1006.23 1006.90 1007.65 1008.45 1009.27 1010.10 1010.91 1011.71 1012.48 1013.23 1013.95 1014.67 1015.37 1016.05 1016.72 1017.38 1018.00 1018.59 1019.15 1019.67 1020.16 1020.64 1021.10 1021.55 1022.00 1022.45 1022.88 1023.29 1023.65 1023.94 1024.16 1024.27 1024.29 1024.21 1024.05 1023.82 1023.54 1023.23 1022.91 1022.57 1022.23
1006.36 1006.81 1007.37 1008.01 1008.72 1009.46 1010.23 1011.01 1011.77 1012.53 1013.26 1013.99 1014.70 1015.40 1016.09 1016.77 1017.43 1018.06 1018.66 1019.21 1019.73 1020.22 1020.67 1021.10 1021.53 1021.96 1022.39 1022.82 1023.24 1023.63 1023.98 1024.26 1024.46 1024.55 1024.54 1024.42 1024.21 1023.92 1023.58 1023.21 1022.82 1022.41 1021.99
1007.47 1007.91 1008.45 1009.05 1009.72 1010.43 1011.16 1011.89 1012.62 1013.35 1014.06 1014.77 1015.47 1016.16 1016.84 1017.51 1018.15 1018.76 1019.32 1019.84 1020.32 1020.75 1021.16 1021.55 1021.93 1022.32 1022.71 1023.12 1023.52 1023.89 1024.23 1024.49 1024.68 1024.76 1024.73 1024.59 1024.36 1024.04 1023.66 1023.24 1022.80 1022.33 1021.85
1008.51 1008.94 1009.46 1010.04 1010.68 1011.36 1012.06 1012.76 1013.47 1014.17 1014.88 1015.57 1016.27 1016.95 1017.62 1018.27 1018.89 1019.47 1019.99 1020.47 1020.89 1021.28 1021.63 1021.96 1022.30 1022.64 1022.99 1023.36 1023.73 1024.08 1024.39 1024.64 1024.81 1024.89 1024.85 1024.71 1024.47 1024.15 1023.76 1023.32 1022.84 1022.33 1021.80
1009.49 1009.91 1010.42 1010.99 1011.61 1012.27 1012.95 1013.64 1014.33 1015.02 1015.71 1016.39 1017.08 1017.75 1018.40 1019.03 1019.62 1020.16 1020.65 1021.07 1021.45 1021.78 1022.08 1022.36 1022.65 1022.94 1023.24 1023.57 1023.89 1024.21 1024.49 1024.72 1024.88 1024.94 1024.91 1024.78 1024.55 1024.23 1023.85 1023.40 1022.90 1022.37 1021.80
1010.41 1010.84 1011.35 1011.92 1012.53 1013.17 1013.84 1014.51 1015.18 1015.86 1016.53 1017.20 1017.87 1018.52 1019.15 1019.75 1020.30 1020.80 1021.25 1021.64 1021.97 1022.26 1022.52 1022.76 1022.99 1023.24 1023.49 1023.77 1024.04 1024.31 1024.56 1024.76 1024.89 1024.95 1024.91 1024.78 1024.56 1024.26 1023.88 1023.44 1022.94 1022.39 1021.79
1011.30 1011.74 1012.26 1012.83 1013.44 1014.07 1014.72 1015.37 1016.03 1016.68 1017.33 1017.97 1018.61 1019.23 1019.83 1020.39 1020.91 1021.38 1021.80 1022.15 1022.45 1022.71 1022.93 1023.14 1023.33 1023.54 1023.75 1023.97 1024.20 1024.42 1024.61 1024.77 1024.87 1024.90 1024.85 1024.71 1024.49 1024.20 1023.82 1023.38 1022.88 1022.32 1021.70
1012.16 1012.63 1013.16 1013.73 1014.34 1014.96 1015.58 1016.21 1016.83 1017.45 1018.07 1018.67 1019.27 1019.85 1020.41 1020.93 1021.42 1021.86 1022.25 1022.58 1022.87 1023.11 1023.31 1023.49 1023.67 1023.84 1024.01 1024.18 1024.36 1024.52 1024.66 1024.76 1024.81 1024.80 1024.72 1024.56 1024.33 1024.03 1023.65 1023.21 1022.70 1022.14 1021.51
1013.02 1013.51 1014.05 1014.62 1015.21 1015.81 1016.41 1017.00 1017.58 1018.16 1018.72 1019.28 1019.83 1020.37 1020.89 1021.38 1021.83 1022.25 1022.62 1022.94 1023.21 1023.44 1023.64 1023.80 1023.96 1024.10 1024.24 1024.37 1024.50 1024.60 1024.68 1024.72 1024.72 1024.66 1024.53 1024.34 1024.09 1023.76 1023.38 1022.93 1022.42 1021.85 1021.22
1013.86 1014.37 1014.91 1015.47 1016.04 1016.61 1017.17 1017.72 1018.26 1018.78 1019.30 1019.81 1020.31 1020.80 1021.28 1021.73 1022.16 1022.55 1022.90 1023.21 1023.47 1023.70 1023.89 1024.05 1024.19 1024.31 1024.42 1024.51 1024.58 1024.64 1024.66 1024.64 1024.58 1024.46 1024.29 1024.07 1023.78 1023.43 1023.03 1022.58 1022.06 1021.50 1020.89
1014.70 1015.21 1015.74 1016.28 1016.82 1017.35 1017.87 1018.37 1018.86 1019.33 1019.80 1020.26 1020.72 1021.16 1021.60 1022.02 1022.42 1022.79 1023.12 1023.41 1023.66 1023.88 1024.06 1024.21 1024.33 1024.43 1024.51 1024.56 1024.59 1024.59 1024.56 1024.50 1024.38 1024.23 1024.02 1023.76 1023.45 1023.09 1022.68 1022.22 1021.72 1021.17 1020.58
Thickness
5476 5475 5474 5474 5472 5471 5470 5469 5468 5467 5467 5467 5466 5465 5465 5465 5464 5464 5464 5464 5464 5464 5463 5463 5463 5463 5463 5463 5463 5463 5463 5463 5466 5468 5468 5468 5467 5467 5467 5467 5467 5467 5467
5465 5465 5464 5463 5461 5460 5459 5458 5457 5457 5456 5456 5455 5455 5455 5454 5454 5454 5454 5454 5454 5454 5453 5452 5452 5452 5452 5452 5452 5452 5453 5453 5454 5456 5456 5456 5456 5456 5457 5456 5456 5455 5455
5455 5454 5453 5451 5450 5449 5448 5447 5446 5446 5446 5445 5445 5445 5445 5445 5445 5445 5444 5444 5444 5443 5443 5442 5442 5441 5442 5442 5442 5442 5442 5443 5444 5445 5446 5445 5445 5445 5445 5445 5445 5444 5444
5444 5443 5442 5441 5440 5438 5437 5436 5435 5435 5435 5435 5435 5435 5435 5435 5435 5435 5434 5434 5434 5433 5433 5432 5431 5431 5431 5431 5431 5431 5432 5433 5434 5434 5435 5435 5434 5434 5434 5434 5434 5433 5433
5434 5433 5432 5430 5429 5427 5426 5426 5425 5424 5424 5424 5424 5425 5425 5426 5426 5426 5425 5424 5425 5424 5424 5422 5422 5421 5420 5420 5420 5421 5421 5422 5424 5424 5425 5425 5425 5424 5424 5423 5423 5423 5422
5424 5422 5421 5419 5418 5417 5416 5416 5415 5415 5415 5415 5415 5415 5416 5417 5417 5416 5415 5415 5415 5415 5415 5414 5413 5412 5411 5410 5410 5411 5411 5412 5415 5415 5416 5416 5416 5414 5413 5412 5412 5412 5413
5413 5411 5410 5408 5407 5407 5406 5406 5406 5406 5406 5406 5406 5406 5407 5408 5407 5407 5406 5406 5407 5407 5406 5406 5405 5405 5403 5403 5403 5403 5403 5403 5404 5405 5406 5407 5406 5405 5404 5403 5402 5402 5402
5402 5401 5399 5398 5398 5397 5397 5397 5397 5398 5398 5398 5398 5398 5398 5399 5398 5398 5398 5398 5398 5398 5398 5397 5397 5397 5396 5395 5395 5396 5396 5396 5396 5396 5398 5399 5397 5396 5395 5394 5393 5392 5392
5393 5392 5391 5390 5390 5389 5389 5389 5389 5389 5389 5389 5390 5390 5390 5391 5390 5390 5390 5390 5390 5391 5390 5389 5389 5389 5388 5387 5387 5388 5389 5389 5388 5387 5388 5389 5388 5387 5386 5384 5384 5383 5384
5385 5384 5383 5382 5382 5381 5381 5381 5381 5381 5381 5381 5382 5382 5383 5383 5383 5383 5382 5383 5383 5383 5383 5382 5382 5382 5382 5381 5381 5381 5382 5382 5381 5381 5381 5381 5381 5380 5378 5377 5377 5376 5376
5377 5376 5375 5374 5374 5374 5373 5374 5374 5373 5374 5375 5375 5376 5376 5376 5376 5375 5375 5375 5376 5376 5376 5376 5376 5376 5375 5375 5374 5374 5375 5374 5374 5374 5374 5373 5373 5373 5372 5370 5369 5369 5368
5370 5369 5368 5368 5367 5367 5367 5367 5367 5367 5367 5368 5368 5368 5369 5369 5369 5368 5368 5367 5368 5368 5368 5368 5369 5368 5368 5368 5367 5368 5367 5366 5367 5367 5367 5366 5366 5366 5365 5363 5362 5362 5362
5363 5363 5362 5362 5361 5360 5360 5361 5361 5361 5361 5361 5362 5362 5363 5362 5362 5362 5361 5361 5361 5361 5361 5361 5361 5361 5360 5360 5360 5360 5360 5360 5360 5361 5361 5361 5360 5359 5358 5357 5356 5356 5356
5357 5357 5356 5356 5356 5355 5355 5355 5355 5355 5355 5355 5355 5356 5356 5356 5356 5356 5355 5355 5354 5355 5355 5355 5354 5353 5353 5352 5353 5353 5353 5353 5353 5354 5355 5354 5352 5352 5352 5352 5351 5351 5351
5351 5350 5350 5350 5350 5350 5350 5350 5349 5349 5349 5349 5349 5349 5349 5350 5350 5349 5349 5349 5349 5349 5349 5348 5348 5348 5348 5348 5348 5347 5347 5347 5347 5348 5347 5347 5346 5346 5346 5345 5345 5345 5344
5345 5345 5345 5345 5345 5345 5345 5345 5344 5343 5342 5342 5342 5342 5343 5343 5343 5343 5343 5343 5343 5343 5343 5343 5343 5343 5343 5343 5343 5342 5342 5341 5342 5342 5342 5342 5341 5341 5340 5340 5339 5339 5339
5340 5339 5339 5339 5339 5339 5339 5339 5339 5339 5337 5337 5337 5337 5337 5338 5338 5338 5338 5338 5338 5338 5338 5339 5339 5338 5338 5338 5338 5337 5337 5337 5336 5336 5336 5336 5336 5335 5335 5334 5334 5333 5333
5334 5333 5333 5333 5333 5333 5333 5333 5333 5333 5333 5334 5333 5332 5332 5333 5333 5333 5333 5333 5333 5333 5334 5334 5334 5334 5333 5333 5333 5333 5333 5332 5332 5331 5331 5331 5331 5330 5330 5329 5329 5328 5327
5329 5329 5328 5328 5328 5328 5328 5328 5328 5327 5327 5328 5328 5328 5328 5328 5328 5328 5328 5328 5329 5329 5330 5330 5330 5330 5329 5329 5329 5329 5329 5328 5328 5327 5327 5327 5326 5326 5325 5324 5324 5323 5323
5323 5323 5322 5323 5323 5323 5323 5323 5323 5323 5322 5323 5323 5323 5324 5324 5324 5324 5324 5324 5325 5325 5326 5326 5326 5326 5326 5326 5326 5326 5325 5325 5324 5324 5324 5323 5323 5322 5321 5320 5321 5321 5320
5319 5319 5317 5318 5318 5318 5318 5318 5318 5318 5318 5318 5318 5318 5318 5319 5320 5320 5320 5321 5321 5322 5322 5322 5323 5323 5323 5323 5323 5322 5322 5322 5322 5321 5320 5320 5319 5318 5318 5317 5318 5318 5317
5314 5314 5313 5313 5313 5314 5314 5314 5314 5314 5314 5314 5314 5314 5314 5314 5315 5316 5316 5317 5317 5318 5318 5319 5320 5321 5321 5321 5321 5320 5320 5319 5319 5318 5317 5317 5316 5315 5315 5315 5316 5316 5315
5308 5308 5308 5308 5309 5309 5310 5310 5311 5311 5311 5311 5311 5311 5311 5311 5312 5312 5313 5313 5314 5315 5316 5316 5317 5318 5319 5319 5319 5319 5318 5317 5317 5316 5315 5314 5314 5314 5314 5314 5314 5314 5314
5303 5303 5304 5304 5305 5306 5307 5307 5307 5308 5308 5308 5308 5308 5308 5308 5309 5309 5310 5311 5312 5313 5313 5314 5315 5317 5317 5317 5318 5317 5317 5316 5315 5315 5314 5313 5313 5313 5313 5313 5313 5314 5314
5299 5299 5300 5301 5301 5302 5303 5304 5304 5305 5305 5305 5305 5305 5306 5306 5306 5307 5308 5309 5310 5311 5312 5313 5314 5315 5316 5316 5316 5316 5316 5315 5315 5314 5314 5313 5313 5313 5313 5313 5313 5313 5314
5295 5296 5296 5297 5298 5299 5299 5300 5301 5301 5302 5302 5302 5302 5302 5303 5304 5305 5306 5307 5308 5310 5311 5312 5313 5314 5315 5315 5316 5316 5315 5315 5315 5314 5314 5314 5313 5313 5312 5312 5312 5313 5313